This is the latest recevied weather packets stored in our database for station/object KD4MBW. If no packets are shown the sender has not sent any weather packets the latest 10 day(s).
| Time | Temp. | Humidity | Pressure | Rain* | Wind** | Luminosity | Snow |
|---|---|---|---|---|---|---|---|
| 1787873655 | 23.33° C | 99% | 1014.8 hPa | 0 mm | - | 47 W/m² | - |
| 1787873350 | 23.33° C | 99% | 1014.6 hPa | 0 mm | - | 44 W/m² | - |
| 1787873049 | 23.33° C | 99% | 1014.6 hPa | 0 mm | - | 50 W/m² | - |
| 1787872744 | 23.33° C | 99% | 1014.6 hPa | 0 mm | - | 53 W/m² | - |
| 1787872440 | 23.33° C | 99% | 1014.8 hPa | 0 mm | - | 58 W/m² | - |
| 1787872140 | 23.33° C | 99% | 1014.8 hPa | 0 mm | - | 56 W/m² | - |
| 1787871839 | 23.33° C | 99% | 1014.7 hPa | 0 mm | - | 63 W/m² | - |
| 1787871534 | 23.33° C | 99% | 1014.7 hPa | 0 mm | - | 68 W/m² | - |
| 1787871229 | 23.33° C | 99% | 1014.7 hPa | 0 mm | - | 71 W/m² | - |
| 1787870924 | 23.33° C | 99% | 1014.8 hPa | 0 mm | - | 68 W/m² | - |
| 1787870619 | 23.33° C | 99% | 1014.7 hPa | 0 mm | - | 64 W/m² | - |
| 1787870314 | 23.33° C | 99% | 1014.7 hPa | 0 mm | - | 60 W/m² | - |
| 1787870010 | 23.33° C | 99% | 1014.7 hPa | 0 mm | - | 57 W/m² | - |
| 1787869709 | 23.33° C | 99% | 1014.6 hPa | 0 mm | - | 55 W/m² | - |
| 1787869408 | 23.33° C | 99% | 1014.6 hPa | 1.27 mm | - | 52 W/m² | - |
| 1787869103 | 23.33° C | 99% | 1014.4 hPa | 0 mm | - | 47 W/m² | - |
| 1787868802 | 23.33° C | 99% | 1014.5 hPa | 0 mm | - | 44 W/m² | - |
| 1787868501 | 23.33° C | 99% | 1014.3 hPa | 0 mm | - | 42 W/m² | - |
| 1787868200 | 23.33° C | 99% | 1014.3 hPa | 0 mm | - | 40 W/m² | - |
| 1787867895 | 23.33° C | 99% | 1014.4 hPa | 0 mm | - | 38 W/m² | - |
| 1787867590 | 23.33° C | 99% | 1014.3 hPa | 0 mm | - | 36 W/m² | - |
| 1787867284 | 23.33° C | 99% | 1014.1 hPa | 0 mm | - | 34 W/m² | - |
| 1787866981 | 23.33° C | 99% | 1014.1 hPa | 1.78 mm | - | 32 W/m² | - |
| 1787866676 | 23.33° C | 99% | 1014.3 hPa | 1.78 mm | - | 32 W/m² | - |
| 1787866374 | 23.33° C | 99% | 1014.2 hPa | 1.27 mm | - | 31 W/m² | - |
* Rain latest hour (hover to see other rain measurements)
** Current wind speed in m/s (hover to see current wind gust speed)